Weather in Dachnoe

Ukraine / Odesa District     46°34′39″N   30°32′56″E
temp.,
°C
wind,
m/s
gust,
m/s
humid.,
%
clouds,
%
prec.,
mm/h
press.,
hPa
HPBL,
m
22 april, thu
thu2200:00+8ssw35845 0.0 101889
03:00+8ssw33885 0.0 101938
06:00+8s34875 0.0 101956
09:00+13s45675 0.0 1020401
12:00+17s66502 0.1 10201341
15:00+17s67453 0.4 10191307
18:00+15s68615 0.3 1018477
21:00+12ssw6137259 0.3 1019320
23 april, fri
fri2300:00+10s6147896 0.0 1018324
03:00+10s5118574 0.0 1018269
06:00+9ssw41095100 0.1 1017215
09:00+13sw5872100 0.8 1017468
12:00+17sw4555100 0.1 10171158
15:00+11wnw4586100 5.9 1017414
18:00+11wnw578599 3.1 1017717
21:00+8n5983100 3.4 1019446
24 april, sat
sat2400:00+5nw37920 0.0 1020221
03:00+5wnw36910 0.0 1020133
06:00+4wnw36860 0.0 1021100
09:00+9wnw57591 0.0 1022594
12:00+11nw8851100 0.0 10221780
15:00+11nw794372 0.0 10231855
18:00+11nw68321 0.0 10231975
21:00+7nw22480 0.0 102419
25 april, sun
sun2500:00+6nnw11501 0.0 102411
03:00+5sw22515 0.0 102412
06:00+5sw12535 0.0 102310
09:00+10s334113 0.0 1023391
12:00+13s553954 0.0 10221529
15:00+13s774262 0.0 10201453
18:00+11s6749100 0.0 1020852
21:00+9ssw4860100 0.1 1020405
26 april, mon
mon2600:00+8sw5980100 0.6 1020350
03:00+6nnw6983100 0.6 1020642
06:00+5nw377760 0.2 1021353
09:00+8nnw57473 0.2 1022852
12:00+11nw56360 0.0 10211752
15:00+13wnw573343 0.0 10202344
18:00+13nw463324 0.0 10192261
21:00+8ssw3561100 0.0 1020149